Location: Unspecified
(0.0000°N, 0.0000°E)
Time: 13:34:35
(UTC+00:00)

Hubble Space Telescope - Pass Details

Date: 04 October 2024
Orbit: 503 x 507 km, 28.5° (Epoch: 13 October)

Event Time Altitude Azimuth Distance (km) Brightness Sun altitude
Rises 19:00:03 0° 207° (SSW) 2,598 4.7 -17.8°
Reaches altitude 10° 19:03:52 10° 170° (S) 1,712 3.3 -18.8°
Enters shadow 19:04:37 11° 159° (SSE) 1,654 3.1 -19.0°
